Tracking 28794 objects as of 19-Apr-2024
HD Live streaming from Space Station
objects crossing your sky now

THORAD AGENA D DEB

Track THORAD AGENA D DEB now!
10-day predictions


NORAD ID: 4687
Int'l Code: 1970-025BL
Perigee: 1,055.3 km
Apogee: 1,097.7 km
Inclination: 99.5 °
Period: 106.6 minutes
Semi major axis: 7447 km
RCS: 0.2719 m2 (medium)
Launch date: April 8, 1970
Source: United States (US)
Launch site: AIR FORCE WESTERN TEST RANGE (AFWTR)

Note: This is SATELLITE DEBRIS
Your satellite tracking list
Your tracking list is empty




NASA's NSSDC Master Catalog

Two Line Element Set (TLE):
1 04687U 70025BL  24110.47051781  .00000418  00000-0  71149-3 0  9998
2 04687  99.4717 278.1895 0028504 100.7052 322.9408 13.50786247657771
Source of the keplerian elements: AFSPC